| time (UTC) | temp C | wind direction | speed KPH | gust KPH | rain 1hr cm | rain 24hr cm | rain mn cm | humidity % | barometer mb |
| 20260505224236 | 26 | 178 | 3.2 | 17.7 | 0.00 | 0.00 | 0.00 | 34 | 1007.7 |
| 20260505223732 | 26 | 233 | 3.2 | 17.7 | 0.00 | 0.00 | 0.00 | 34 | 1007.7 |
| 20260505223221 | 26 | 192 | 4.8 | 16.1 | 0.00 | 0.00 | 0.00 | 34 | 1007.6 |
| 20260505222714 | 26 | 205 | 4.8 | 16.1 | 0.00 | 0.00 | 0.00 | 34 | 1007.6 |
| 20260505222211 | 26 | 158 | 4.8 | 17.7 | 0.00 | 0.00 | 0.00 | 33 | 1007.6 |
| 20260505221659 | 26 | 39 | 4.8 | 17.7 | 0.00 | 0.00 | 0.00 | 33 | 1007.6 |
| 20260505221153 | 27 | 48 | 4.8 | 17.7 | 0.00 | 0.00 | 0.00 | 33 | 1007.5 |
| 20260505220652 | 26 | 282 | 4.8 | 17.7 | 0.00 | 0.00 | 0.00 | 33 | 1007.4 |
| 20260505220149 | 27 | 211 | 4.8 | 12.9 | 0.00 | 0.00 | 0.00 | 34 | 1007.5 |
| 20260505215649 | 27 | 35 | 4.8 | 12.9 | 0.00 | 0.00 | 0.00 | 34 | 1007.5 |
| 20260505215149 | 27 | 88 | 4.8 | 16.1 | 0.00 | 0.00 | 0.00 | 35 | 1007.3 |
| 20260505214646 | 26 | 147 | 4.8 | 16.1 | 0.00 | 0.00 | 0.00 | 34 | 1007.2 |
| 20260505214411 | 26 | 61 | 4.8 | 16.1 | 0.00 | 0.00 | 0.00 | 34 | 1007.2 |
| 20260505213909 | 27 | 53 | 4.8 | 19.3 | 0.00 | 0.00 | 0.00 | 34 | 1007.3 |
| 20260505213147 | 27 | 105 | 4.8 | 19.3 | 0.00 | 0.00 | 0.00 | 35 | 1007.3 |
| 20260505212646 | 27 | 161 | 4.8 | 20.9 | 0.00 | 0.00 | 0.00 | 35 | 1007.0 |
| 20260505212146 | 27 | 42 | 6.4 | 22.5 | 0.00 | 0.00 | 0.00 | 35 | 1006.8 |
| 20260505211646 | 27 | 326 | 6.4 | 22.5 | 0.00 | 0.00 | 0.00 | 35 | 1006.7 |
| 20260505211405 | 27 | 237 | 6.4 | 19.3 | 0.00 | 0.00 | 0.00 | 33 | 1007.0 |
| 20260505210649 | 27 | 182 | 6.4 | 17.7 | 0.00 | 0.00 | 0.00 | 32 | 1007.1 |
| 20260505210201 | 27 | 34 | 6.4 | 25.7 | 0.00 | 0.00 | 0.00 | 33 | 1007.0 |
| 20260505205643 | 27 | 57 | 8.0 | 25.7 | 0.00 | 0.00 | 0.00 | 33 | 1006.9 |
| 20260505205146 | 27 | 217 | 6.4 | 24.1 | 0.00 | 0.00 | 0.00 | 33 | 1006.8 |
| 20260505204644 | 27 | 62 | 4.8 | 24.1 | 0.00 | 0.00 | 0.00 | 33 | 1007.0 |
| 20260505204145 | 27 | 179 | 6.4 | 24.1 | 0.00 | 0.00 | 0.00 | 34 | 1007.1 |
| 20260505203646 | 27 | 57 | 4.8 | 24.1 | 0.00 | 0.00 | 0.00 | 34 | 1007.1 |
| 20260505203143 | 27 | 58 | 4.8 | 20.9 | 0.00 | 0.00 | 0.00 | 36 | 1007.1 |
| 20260505202641 | 27 | 66 | 6.4 | 29.0 | 0.00 | 0.00 | 0.00 | 34 | 1007.0 |
| 20260505202405 | 27 | 24 | 6.4 | 29.0 | 0.00 | 0.00 | 0.00 | 36 | 1007.1 |
| 20260505201640 | 27 | 217 | 6.4 | 29.0 | 0.00 | 0.00 | 0.00 | 35 | 1007.1 |
| 20260505201140 | 27 | 80 | 6.4 | 29.0 | 0.00 | 0.00 | 0.00 | 33 | 1007.3 |
| 20260505200640 | 27 | 247 | 6.4 | 20.9 | 0.00 | 0.00 | 0.00 | 34 | 1007.2 |
| 20260505200143 | 27 | 242 | 6.4 | 20.9 | 0.00 | 0.00 | 0.00 | 36 | 1007.1 |
| 20260505195640 | 27 | 346 | 4.8 | 20.9 | 0.00 | 0.00 | 0.00 | 36 | 1007.2 |
| 20260505195403 | 28 | 52 | 4.8 | 29.0 | 0.00 | 0.00 | 0.00 | 34 | 1007.3 |
| 20260505194641 | 28 | 182 | 3.2 | 29.0 | 0.00 | 0.00 | 0.00 | 35 | 1007.2 |
| 20260505194627 | 28 | 182 | 4.8 | 29.0 | 0.00 | 0.00 | 0.00 | 36 | 1007.3 |
| 20260505193640 | 28 | 0 | 4.8 | 29.0 | 0.00 | 0.00 | 0.00 | 34 | 1007.3 |
| 20260505193400 | 28 | 51 | 4.8 | 30.6 | 0.00 | 0.00 | 0.00 | 34 | 1007.4 |
| 20260505192640 | 28 | 82 | 6.4 | 30.6 | 0.00 | 0.00 | 0.00 | 36 | 1007.6 |
| 20260505192141 | 28 | 242 | 6.4 | 30.6 | 0.00 | 0.00 | 0.00 | 35 | 1007.7 |
| 20260505191640 | 28 | 286 | 6.4 | 30.6 | 0.00 | 0.00 | 0.00 | 36 | 1007.7 |
| 20260505191406 | 28 | 56 | 6.4 | 17.7 | 0.00 | 0.00 | 0.00 | 35 | 1007.7 |
| 20260505190640 | 28 | 192 | 8.0 | 17.7 | 0.00 | 0.00 | 0.00 | 34 | 1007.8 |
| 20260505190141 | 28 | 275 | 8.0 | 30.6 | 0.00 | 0.00 | 0.00 | 37 | 1007.8 |
| 20260505185640 | 28 | 344 | 6.4 | 30.6 | 0.00 | 0.00 | 0.00 | 35 | 1007.9 |
| 20260505185141 | 28 | 46 | 6.4 | 30.6 | 0.00 | 0.00 | 0.00 | 37 | 1007.9 |
| 20260505184910 | 28 | 144 | 4.8 | 30.6 | 0.00 | 0.00 | 0.00 | 36 | 1008.1 |
| 20260505184140 | 28 | 88 | 4.8 | 19.3 | 0.00 | 0.00 | 0.00 | 36 | 1008.1 |
| 20260505183640 | 28 | 90 | 4.8 | 16.1 | 0.00 | 0.00 | 0.00 | 38 | 1008.2 |
| 20260505183141 | 28 | 114 | 3.2 | 14.5 | 0.00 | 0.00 | 0.00 | 38 | 1008.4 |
| 20260505182641 | 28 | 188 | 4.8 | 11.3 | 0.00 | 0.00 | 0.00 | 40 | 1008.3 |
| 20260505182141 | 28 | 94 | 4.8 | 14.5 | 0.00 | 0.00 | 0.00 | 38 | 1008.4 |
| 20260505181902 | 28 | 5 | 4.8 | 16.1 | 0.00 | 0.00 | 0.00 | 41 | 1008.3 |
| 20260505181140 | 28 | 28 | 4.8 | 16.1 | 0.00 | 0.00 | 0.00 | 36 | 1008.4 |
| 20260505180641 | 28 | 194 | 4.8 | 14.5 | 0.00 | 0.00 | 0.00 | 41 | 1008.5 |
| 20260505180140 | 27 | 250 | 4.8 | 17.7 | 0.00 | 0.00 | 0.00 | 42 | 1008.6 |
| 20260505175638 | 28 | 211 | 4.8 | 17.7 | 0.00 | 0.00 | 0.00 | 43 | 1008.6 |
| 20260505175138 | 28 | 90 | 4.8 | 12.9 | 0.00 | 0.00 | 0.00 | 40 | 1008.7 |
| 20260505174906 | 28 | 32 | 4.8 | 12.9 | 0.00 | 0.00 | 0.00 | 43 | 1008.6 |
| 20260505174138 | 28 | 213 | 3.2 | 12.9 | 0.00 | 0.00 | 0.00 | 41 | 1008.7 |
| 20260505173639 | 28 | 215 | 3.2 | 12.9 | 0.00 | 0.00 | 0.00 | 43 | 1008.8 |
| 20260505173139 | 28 | 251 | 3.2 | 12.9 | 0.00 | 0.00 | 0.00 | 44 | 1008.9 |
| 20260505172858 | 28 | 220 | 3.2 | 11.3 | 0.00 | 0.00 | 0.00 | 43 | 1008.9 |
| 20260505172137 | 28 | 128 | 3.2 | 11.3 | 0.00 | 0.00 | 0.00 | 41 | 1009.0 |
| 20260505171906 | 28 | 60 | 3.2 | 11.3 | 0.00 | 0.00 | 0.00 | 44 | 1009.0 |
| 20260505171134 | 28 | 198 | 3.2 | 22.5 | 0.00 | 0.00 | 0.00 | 45 | 1009.0 |
| 20260505170628 | 27 | 5 | 3.2 | 22.5 | 0.00 | 0.00 | 0.00 | 45 | 1009.0 |
| 20260505170119 | 27 | 38 | 3.2 | 22.5 | 0.00 | 0.00 | 0.00 | 46 | 1009.0 |
| 20260505165612 | 27 | 229 | 3.2 | 22.5 | 0.00 | 0.00 | 0.00 | 44 | 1009.1 |
| 20260505165113 | 27 | 202 | 3.2 | 16.1 | 0.00 | 0.00 | 0.00 | 45 | 1009.3 |
| 20260505164834 | 27 | 38 | 3.2 | 14.5 | 0.00 | 0.00 | 0.00 | 45 | 1009.4 |
| 20260505164112 | 27 | 271 | 3.2 | 11.3 | 0.00 | 0.00 | 0.00 | 45 | 1009.5 |
| 20260505163608 | 27 | 169 | 4.8 | 17.7 | 0.00 | 0.00 | 0.00 | 45 | 1009.5 |
| 20260505163342 | 27 | 58 | 3.2 | 17.7 | 0.00 | 0.00 | 0.00 | 51 | 1009.6 |
| 20260505162608 | 26 | 56 | 3.2 | 17.7 | 0.00 | 0.00 | 0.00 | 46 | 1009.6 |
| 20260505162107 | 26 | 237 | 3.2 | 17.7 | 0.00 | 0.00 | 0.00 | 47 | 1009.7 |
| 20260505161604 | 26 | 53 | 4.8 | 14.5 | 0.00 | 0.00 | 0.00 | 47 | 1009.7 |
| 20260505161118 | 26 | 132 | 3.2 | 14.5 | 0.00 | 0.00 | 0.00 | 46 | 1009.7 |
| 20260505160605 | 26 | 209 | 3.2 | 12.9 | 0.00 | 0.00 | 0.00 | 47 | 1009.7 |
| 20260505160338 | 26 | 339 | 3.2 | 12.9 | 0.00 | 0.00 | 0.00 | 47 | 1009.8 |
| 20260505153046 | 25 | 142 | 3.2 | 12.9 | 0.00 | 0.00 | 0.00 | 50 | 1010.2 |
| 20260505152538 | 25 | 71 | 3.2 | 12.9 | 0.00 | 0.00 | 0.00 | 53 | 1010.2 |
| 20260505152027 | 25 | 108 | 3.2 | 12.9 | 0.00 | 0.00 | 0.00 | 51 | 1010.2 |
| 20260505151533 | 24 | 298 | 3.2 | 12.9 | 0.00 | 0.00 | 0.00 | 54 | 1010.3 |
| 20260505151014 | 24 | 66 | 3.2 | 9.7 | 0.00 | 0.00 | 0.00 | 54 | 1010.2 |
| 20260505150504 | 24 | 210 | 3.2 | 14.5 | 0.00 | 0.00 | 0.00 | 52 | 1010.2 |
| 20260505150439 | 23 | 96 | 3.2 | 14.5 | 0.00 | 0.00 | 0.00 | 53 | 1010.2 |
| 20260505140336 | 22 | 321 | 3.2 | 14.5 | 0.00 | 0.00 | 0.00 | 56 | 1010.8 |
| 20260505130208 | 20 | 134 | 1.6 | 8.0 | 0.00 | 0.00 | 0.00 | 67 | 1010.7 |
| 20260505124646 | 19 | 164 | 1.6 | 6.4 | 0.00 | 0.00 | 0.00 | 70 | 1010.3 |
| 20260505124140 | 18 | 78 | 1.6 | 4.8 | 0.00 | 0.00 | 0.00 | 70 | 1010.3 |
| 20260505123634 | 18 | 167 | 1.6 | 4.8 | 0.00 | 0.00 | 0.00 | 73 | 1010.3 |
| 20260505123351 | 17 | 168 | 0.0 | 6.4 | 0.00 | 0.00 | 0.00 | 74 | 1010.2 |
| 20260505123059 | 17 | 158 | 0.0 | 3.2 | 0.00 | 0.00 | 0.00 | 75 | 1010.5 |
| 20260505122112 | 16 | 198 | 0.0 | 4.8 | 0.00 | 0.00 | 0.00 | 77 | 1010.5 |
| 20260505121602 | 16 | 194 | 0.0 | 4.8 | 0.00 | 0.00 | 0.00 | 79 | 1010.4 |
| 20260505121056 | 15 | 180 | 0.0 | 4.8 | 0.00 | 0.00 | 0.00 | 81 | 1010.5 |
| 20260505120550 | 15 | 175 | 0.0 | 4.8 | 0.00 | 0.00 | 0.00 | 82 | 1010.7 |
| 20260505120258 | 14 | 175 | 0.0 | 4.8 | 0.00 | 0.00 | 0.00 | 84 | 1010.7 |
| 20260505115547 | 13 | 240 | 0.0 | 4.8 | 0.00 | 0.00 | 0.00 | 85 | 1010.7 |
| 20260505115026 | 13 | 259 | 0.0 | 3.2 | 0.00 | 0.00 | 0.00 | 86 | 1010.7 |
| 20260505114526 | 13 | 261 | 0.0 | 6.4 | 0.00 | 0.00 | 0.00 | 85 | 1010.7 |
| 20260505114029 | 13 | 260 | 1.6 | 6.4 | 0.00 | 0.00 | 0.00 | 86 | 1010.7 |
| 20260505113753 | 13 | 262 | 1.6 | 6.4 | 0.00 | 0.00 | 0.00 | 86 | 1010.6 |
| 20260505113027 | 12 | 42 | 0.0 | 6.4 | 0.00 | 0.00 | 0.00 | 86 | 1010.6 |
| 20260505112526 | 12 | 140 | 0.0 | 1.6 | 0.00 | 0.00 | 0.00 | 87 | 1010.6 |
| 20260505112024 | 12 | 193 | 0.0 | 3.2 | 0.00 | 0.00 | 0.00 | 88 | 1010.4 |
| 20260505111535 | 12 | 193 | 0.0 | 3.2 | 0.00 | 0.00 | 0.00 | 88 | 1010.4 |
| 20260505111021 | 12 | 193 | 0.0 | 3.2 | 0.00 | 0.00 | 0.00 | 88 | 1010.3 |
| 20260505110532 | 12 | 193 | 0.0 | 3.2 | 0.00 | 0.00 | 0.00 | 89 | 1010.2 |
| 20260505102001 | 10 | 193 | 0.0 | 0.0 | 0.00 | 0.00 | 0.00 | 89 | 1010.5 |
| 20260505101459 | 10 | 194 | 0.0 | 0.0 | 0.00 | 0.00 | 0.00 | 89 | 1010.6 |
| 20260505100959 | 10 | 194 | 0.0 | 0.0 | 0.00 | 0.00 | 0.00 | 89 | 1010.3 |
| 20260505100719 | 10 | 194 | 0.0 | 0.0 | 0.00 | 0.00 | 0.00 | 89 | 1010.2 |
| 20260505100220 | 9 | 194 | 0.0 | 0.0 | 0.00 | 0.00 | 0.00 | 89 | 1010.1 |
| 20260505095456 | 9 | 194 | 0.0 | 0.0 | 0.00 | 0.00 | 0.00 | 88 | 1010.2 |
| 20260505094956 | 9 | 194 | 0.0 | 0.0 | 0.00 | 0.00 | 0.00 | 87 | 1010.1 |
| 20260505094507 | 9 | 194 | 0.0 | 0.0 | 0.00 | 0.00 | 0.00 | 87 | 1010.1 |
| 20260505093951 | 9 | 194 | 0.0 | 0.0 | 0.00 | 0.00 | 0.00 | 87 | 1010.0 |
| 20260505093450 | 9 | 194 | 0.0 | 0.0 | 0.00 | 0.00 | 0.00 | 86 | 1010.1 |
| 20260505092948 | 9 | 194 | 0.0 | 0.0 | 0.00 | 0.00 | 0.00 | 85 | 1010.0 |
| 20260505092446 | 10 | 194 | 0.0 | 0.0 | 0.00 | 0.00 | 0.00 | 85 | 1009.8 |
| 20260505091945 | 10 | 194 | 0.0 | 0.0 | 0.00 | 0.00 | 0.00 | 85 | 1009.9 |
| 20260505091443 | 10 | 194 | 0.0 | 0.0 | 0.00 | 0.00 | 0.00 | 86 | 1009.8 |
| 20260505090944 | 10 | 194 | 0.0 | 0.0 | 0.00 | 0.00 | 0.00 | 86 | 1009.8 |
| 20260505090445 | 10 | 194 | 0.0 | 0.0 | 0.00 | 0.00 | 0.00 | 86 | 1009.7 |
| 20260505085939 | 10 | 194 | 0.0 | 0.0 | 0.00 | 0.00 | 0.00 | 86 | 1009.7 |
| 20260505085435 | 10 | 194 | 0.0 | 0.0 | 0.00 | 0.00 | 0.00 | 86 | 1009.6 |
| 20260505085157 | 10 | 194 | 0.0 | 0.0 | 0.00 | 0.00 | 0.00 | 86 | 1009.6 |
| 20260505084433 | 10 | 194 | 0.0 | 0.0 | 0.00 | 0.00 | 0.00 | 86 | 1009.6 |
| 20260505083931 | 10 | 194 | 0.0 | 0.0 | 0.00 | 0.00 | 0.00 | 86 | 1009.7 |
| 20260505083429 | 10 | 194 | 0.0 | 0.0 | 0.00 | 0.00 | 0.00 | 86 | 1009.8 |
| 20260505082928 | 10 | 194 | 0.0 | 0.0 | 0.00 | 0.00 | 0.00 | 86 | 1009.8 |
| 20260505082425 | 10 | 194 | 0.0 | 0.0 | 0.00 | 0.00 | 0.00 | 85 | 1009.7 |
| 20260505081932 | 10 | 194 | 0.0 | 0.0 | 0.00 | 0.00 | 0.00 | 82 | 1009.7 |
| 20260505081927 | 10 | 194 | 0.0 | 0.0 | 0.00 | 0.00 | 0.00 | 84 | 1009.7 |
| 20260505080925 | 10 | 194 | 0.0 | 0.0 | 0.00 | 0.00 | 0.00 | 82 | 1009.7 |
| 20260505080425 | 10 | 194 | 0.0 | 0.0 | 0.00 | 0.00 | 0.00 | 82 | 1009.7 |
| 20260505075926 | 10 | 194 | 0.0 | 0.0 | 0.00 | 0.00 | 0.00 | 82 | 1009.7 |
| 20260505075426 | 11 | 194 | 0.0 | 0.0 | 0.00 | 0.00 | 0.00 | 82 | 1009.7 |
| 20260505074926 | 11 | 194 | 0.0 | 0.0 | 0.00 | 0.00 | 0.00 | 82 | 1009.7 |
| 20260505074426 | 11 | 194 | 0.0 | 0.0 | 0.00 | 0.00 | 0.00 | 83 | 1009.7 |
| 20260505073925 | 11 | 194 | 0.0 | 0.0 | 0.00 | 0.00 | 0.00 | 83 | 1009.7 |
| 20260505073425 | 11 | 194 | 0.0 | 0.0 | 0.00 | 0.00 | 0.00 | 83 | 1009.7 |
| 20260505072925 | 10 | 194 | 0.0 | 0.0 | 0.00 | 0.00 | 0.00 | 83 | 1009.6 |
| 20260505072425 | 10 | 194 | 0.0 | 0.0 | 0.00 | 0.00 | 0.00 | 83 | 1009.6 |
| 20260505071927 | 10 | 194 | 0.0 | 0.0 | 0.00 | 0.00 | 0.00 | 83 | 1009.6 |
| 20260505071423 | 10 | 194 | 0.0 | 0.0 | 0.00 | 0.00 | 0.00 | 83 | 1009.7 |
| 20260505070922 | 10 | 194 | 0.0 | 0.0 | 0.00 | 0.00 | 0.00 | 83 | 1009.6 |
| 20260505070640 | 10 | 194 | 0.0 | 0.0 | 0.00 | 0.00 | 0.00 | 83 | 1009.6 |
| 20260505065922 | 10 | 194 | 0.0 | 0.0 | 0.00 | 0.00 | 0.00 | 83 | 1009.6 |
| 20260505065423 | 10 | 194 | 0.0 | 0.0 | 0.00 | 0.00 | 0.00 | 82 | 1009.7 |
| 20260505065144 | 10 | 194 | 0.0 | 0.0 | 0.00 | 0.00 | 0.00 | 82 | 1009.8 |
| 20260505064647 | 10 | 194 | 0.0 | 0.0 | 0.00 | 0.00 | 0.00 | 81 | 1009.7 |
| 20260505063922 | 10 | 194 | 0.0 | 0.0 | 0.00 | 0.00 | 0.00 | 81 | 1009.8 |
| 20260505063420 | 10 | 194 | 0.0 | 0.0 | 0.00 | 0.00 | 0.00 | 80 | 1009.7 |
| 20260505062921 | 10 | 194 | 0.0 | 0.0 | 0.00 | 0.00 | 0.00 | 79 | 1009.8 |
| 20260505062422 | 10 | 194 | 0.0 | 0.0 | 0.00 | 0.00 | 0.00 | 79 | 1009.8 |
| 20260505061922 | 11 | 194 | 0.0 | 0.0 | 0.00 | 0.00 | 0.00 | 79 | 1009.9 |
| 20260505061421 | 11 | 194 | 0.0 | 0.0 | 0.00 | 0.00 | 0.00 | 79 | 1009.9 |
| 20260505060921 | 11 | 194 | 0.0 | 0.0 | 0.00 | 0.00 | 0.00 | 80 | 1009.8 |
| 20260505060422 | 11 | 194 | 0.0 | 0.0 | 0.00 | 0.00 | 0.00 | 80 | 1009.8 |
| 20260505055922 | 11 | 194 | 0.0 | 0.0 | 0.00 | 0.00 | 0.00 | 79 | 1009.9 |
| 20260505055417 | 11 | 194 | 0.0 | 0.0 | 0.00 | 0.00 | 0.00 | 78 | 1009.9 |
| 20260505054917 | 11 | 194 | 0.0 | 0.0 | 0.00 | 0.00 | 0.00 | 78 | 1009.9 |
| 20260505054422 | 11 | 194 | 0.0 | 0.0 | 0.00 | 0.00 | 0.00 | 78 | 1010.0 |
| 20260505053918 | 11 | 194 | 0.0 | 0.0 | 0.00 | 0.00 | 0.00 | 78 | 1009.9 |
| 20260505053414 | 11 | 194 | 0.0 | 0.0 | 0.00 | 0.00 | 0.00 | 78 | 1010.0 |
| 20260505052913 | 11 | 194 | 0.0 | 0.0 | 0.00 | 0.00 | 0.00 | 78 | 1010.1 |
| 20260505052412 | 10 | 194 | 0.0 | 0.0 | 0.00 | 0.00 | 0.00 | 78 | 1010.1 |
| 20260505051910 | 10 | 194 | 0.0 | 0.0 | 0.00 | 0.00 | 0.00 | 78 | 1010.2 |
| 20260505051407 | 10 | 194 | 0.0 | 0.0 | 0.00 | 0.00 | 0.00 | 78 | 1010.1 |
| 20260505050906 | 10 | 194 | 0.0 | 0.0 | 0.00 | 0.00 | 0.00 | 78 | 1010.2 |
| 20260505050403 | 10 | 194 | 0.0 | 0.0 | 0.00 | 0.00 | 0.00 | 77 | 1010.2 |
| 20260505041434 | 11 | 194 | 0.0 | 0.0 | 0.00 | 0.00 | 0.00 | 72 | 1010.4 |
| 20260505040342 | 11 | 194 | 0.0 | 0.0 | 0.00 | 0.00 | 0.00 | 71 | 1010.4 |
| 20260505040109 | 11 | 194 | 0.0 | 0.0 | 0.00 | 0.00 | 0.00 | 71 | 1010.3 |
| 20260505035341 | 11 | 194 | 0.0 | 0.0 | 0.00 | 0.00 | 0.00 | 71 | 1010.4 |
| 20260505035110 | 11 | 194 | 0.0 | 0.0 | 0.00 | 0.00 | 0.00 | 71 | 1010.3 |
| 20260505034832 | 11 | 194 | 0.0 | 0.0 | 0.00 | 0.00 | 0.00 | 71 | 1010.4 |
| 20260505034506 | 11 | 194 | 0.0 | 0.0 | 0.00 | 0.00 | 0.00 | 70 | 1010.5 |
| 20260505033341 | 11 | 194 | 0.0 | 0.0 | 0.00 | 0.00 | 0.00 | 70 | 1010.5 |
| 20260505033107 | 11 | 194 | 0.0 | 0.0 | 0.00 | 0.00 | 0.00 | 69 | 1010.6 |
| 20260505032342 | 12 | 194 | 0.0 | 0.0 | 0.00 | 0.00 | 0.00 | 69 | 1010.5 |
| 20260505031843 | 12 | 194 | 0.0 | 0.0 | 0.00 | 0.00 | 0.00 | 68 | 1010.5 |
| 20260505031337 | 12 | 194 | 0.0 | 0.0 | 0.00 | 0.00 | 0.00 | 67 | 1010.6 |
| 20260505030831 | 12 | 194 | 0.0 | 0.0 | 0.00 | 0.00 | 0.00 | 66 | 1010.5 |
| 20260505030321 | 12 | 194 | 0.0 | 0.0 | 0.00 | 0.00 | 0.00 | 66 | 1010.5 |
| 20260505025815 | 12 | 194 | 0.0 | 0.0 | 0.00 | 0.00 | 0.00 | 66 | 1010.6 |
| 20260505025309 | 13 | 194 | 0.0 | 0.0 | 0.00 | 0.00 | 0.00 | 66 | 1010.6 |
| 20260505024759 | 13 | 194 | 0.0 | 0.0 | 0.00 | 0.00 | 0.00 | 65 | 1010.6 |
| 20260505024253 | 13 | 194 | 0.0 | 0.0 | 0.00 | 0.00 | 0.00 | 65 | 1010.6 |
| 20260505023747 | 13 | 194 | 0.0 | 0.0 | 0.00 | 0.00 | 0.00 | 65 | 1010.6 |
| 20260505023236 | 13 | 194 | 0.0 | 0.0 | 0.00 | 0.00 | 0.00 | 64 | 1010.7 |
| 20260505022731 | 13 | 194 | 0.0 | 0.0 | 0.00 | 0.00 | 0.00 | 63 | 1010.6 |
| 20260505022225 | 13 | 194 | 0.0 | 0.0 | 0.00 | 0.00 | 0.00 | 63 | 1010.6 |
| 20260505021714 | 13 | 194 | 0.0 | 0.0 | 0.00 | 0.00 | 0.00 | 63 | 1010.6 |
| 20260505021210 | 13 | 194 | 0.0 | 0.0 | 0.00 | 0.00 | 0.00 | 62 | 1010.6 |
| 20260505020702 | 13 | 194 | 0.0 | 0.0 | 0.00 | 0.00 | 0.00 | 61 | 1010.7 |
| 20260505020153 | 14 | 194 | 0.0 | 0.0 | 0.00 | 0.00 | 0.00 | 60 | 1010.7 |
| 20260505015647 | 14 | 194 | 0.0 | 0.0 | 0.00 | 0.00 | 0.00 | 59 | 1010.7 |
| 20260505015141 | 15 | 194 | 0.0 | 0.0 | 0.00 | 0.00 | 0.00 | 59 | 1010.5 |
| 20260505014859 | 15 | 194 | 0.0 | 0.0 | 0.00 | 0.00 | 0.00 | 59 | 1010.5 |
| 20260505014125 | 15 | 194 | 0.0 | 0.0 | 0.00 | 0.00 | 0.00 | 58 | 1010.5 |
| 20260505013619 | 15 | 194 | 0.0 | 0.0 | 0.00 | 0.00 | 0.00 | 58 | 1010.4 |
| 20260505013109 | 15 | 194 | 0.0 | 0.0 | 0.00 | 0.00 | 0.00 | 57 | 1010.5 |
| 20260505012603 | 15 | 194 | 0.0 | 0.0 | 0.00 | 0.00 | 0.00 | 55 | 1010.4 |
| 20260505012057 | 16 | 194 | 0.0 | 0.0 | 0.00 | 0.00 | 0.00 | 55 | 1010.3 |
| 20260505011547 | 16 | 194 | 0.0 | 0.0 | 0.00 | 0.00 | 0.00 | 54 | 1010.2 |
| 20260505011042 | 16 | 194 | 0.0 | 0.0 | 0.00 | 0.00 | 0.00 | 53 | 1010.2 |
| 20260505010535 | 16 | 194 | 0.0 | 0.0 | 0.00 | 0.00 | 0.00 | 53 | 1010.1 |
| 20260505010025 | 17 | 194 | 0.0 | 0.0 | 0.00 | 0.00 | 0.00 | 52 | 1010.0 |
| 20260505005518 | 17 | 194 | 0.0 | 0.0 | 0.00 | 0.00 | 0.00 | 51 | 1010.1 |
| 20260505005021 | 17 | 192 | 0.0 | 0.0 | 0.00 | 0.00 | 0.00 | 50 | 1009.9 |
| 20260505004503 | 17 | 192 | 0.0 | 1.6 | 0.00 | 0.00 | 0.00 | 50 | 1009.8 |
| 20260505003957 | 17 | 192 | 0.0 | 1.6 | 0.00 | 0.00 | 0.00 | 49 | 1009.8 |
| 20260505003451 | 18 | 192 | 0.0 | 1.6 | 0.00 | 0.00 | 0.00 | 48 | 1009.6 |
| 20260505002941 | 18 | 193 | 0.0 | 4.8 | 0.00 | 0.00 | 0.00 | 48 | 1009.7 |
| 20260505002435 | 18 | 199 | 0.0 | 4.8 | 0.00 | 0.00 | 0.00 | 47 | 1009.6 |
| 20260505002153 | 18 | 199 | 1.6 | 6.4 | 0.00 | 0.00 | 0.00 | 46 | 1009.4 |
| 20260505001419 | 18 | 229 | 0.0 | 6.4 | 0.00 | 0.00 | 0.00 | 47 | 1009.3 |
| 20260505000913 | 18 | 249 | 0.0 | 6.4 | 0.00 | 0.00 | 0.00 | 46 | 1009.4 |
| 20260505000407 | 19 | 45 | 1.6 | 6.4 | 0.00 | 0.00 | 0.00 | 45 | 1009.2 |
| 20260504235857 | 19 | 244 | 1.6 | 6.4 | 0.00 | 0.00 | 0.00 | 44 | 1009.1 |
| 20260504235351 | 19 | 182 | 1.6 | 4.8 | 0.00 | 0.00 | 0.00 | 44 | 1009.1 |
| 20260504235305 | 20 | 163 | 1.6 | 11.3 | 0.00 | 0.00 | 0.00 | 43 | 1008.9 |
| 20260504234934 | 20 | 163 | 1.6 | 6.4 | 0.00 | 0.00 | 0.00 | 44 | 1009.0 |
| 20260504233830 | 20 | 211 | 1.6 | 11.3 | 0.00 | 0.00 | 0.00 | 42 | 1008.9 |
| 20260504233324 | 20 | 74 | 1.6 | 11.3 | 0.00 | 0.00 | 0.00 | 42 | 1008.8 |
| 20260504232813 | 20 | 201 | 1.6 | 11.3 | 0.00 | 0.00 | 0.00 | 42 | 1008.8 |
| 20260504232307 | 20 | 84 | 1.6 | 6.4 | 0.00 | 0.00 | 0.00 | 42 | 1008.8 |
| 20260504232248 | 20 | 32 | 1.6 | 6.4 | 0.00 | 0.00 | 0.00 | 42 | 1008.7 |
| 20260504231251 | 21 | 5 | 1.6 | 9.7 | 0.00 | 0.00 | 0.00 | 41 | 1008.6 |
| 20260504231023 | 21 | 307 | 1.6 | 9.7 | 0.00 | 0.00 | 0.00 | 41 | 1008.6 |
| 20260504230238 | 21 | 222 | 1.6 | 9.7 | 0.00 | 0.00 | 0.00 | 40 | 1008.5 |
| 20260504225729 | 21 | 211 | 3.2 | 9.7 | 0.00 | 0.00 | 0.00 | 40 | 1008.6 |
| 20260504225223 | 21 | 148 | 3.2 | 14.5 | 0.00 | 0.00 | 0.00 | 40 | 1008.5 |
| 20260504224718 | 21 | 36 | 1.6 | 14.5 | 0.00 | 0.00 | 0.00 | 40 | 1008.5 |